Simultaneous Nadir Overpasses (SNOs) Predictions

Prediction of SNOs between NOAA-19 and TERRA Satellite Orbit:

Table of predicted SNOs for the next 14.0 days since TLE Epoch: 3/18/2023
Index Date (NOAA-19) Time (NOAA-19) Lat,Lon (NOAA-19) SZA (NOAA-19 ) Date (TERRA) Time (TERRA) Lat,Lon (TERRA) SZA (TERRA ) Distance(km) Time Diff (sec)
1 03/18/2023 15:38:09 -80.93, 160.27 96.78 03/18/2023 15:38:03 -80.93, 160.34 96.78 1.10 6
2 03/20/2023 19:28:51 80.93, -77.43 82.38 03/20/2023 19:28:38 80.92, -77.48 82.36 1.51 13
3 03/22/2023 23:19:25 -80.93, 45.16 98.44 03/22/2023 23:19:13 -80.94, 45.15 98.43 1.42 12
4 03/25/2023 03:10:06 80.93, 167.34 80.72 03/25/2023 03:09:47 80.93, 167.31 80.71 0.52 19
5 03/27/2023 06:09:47 80.92, 121.17 79.79 03/27/2023 06:11:00 80.89, 121.46 79.81 6.50 73
6 03/27/2023 07:00:42 -80.93, -70.57 100.14 03/27/2023 07:00:22 -80.93, -70.39 100.13 3.18 20
7 03/29/2023 10:00:21 -80.93,-115.84 100.99 03/29/2023 10:01:33 -80.93,-115.72 100.95 2.22 72
8 03/29/2023 10:51:20 80.93, 52.18 79.08 03/29/2023 10:50:54 80.94, 52.10 79.07 1.62 26
9 03/31/2023 13:50:59 80.93, 6.62 78.21 03/31/2023 13:52:05 80.93, 6.61 78.23 0.40 66



Historial Predications of SNOs between NOAA-19 and TERRA
